Tracking 19706 objects as of 16-Jun-2019
HD Live streaming from Space Station
objects crossing your sky now

CHEFSAT

Track CHEFSAT now!
10-day predictions


NORAD ID: 43044
Int'l Code: 2017-071H
Perigee: 438.6 km
Apogee: 445.6 km
Inclination: 51.6 °
Period: 93.3 minutes
Semi major axis: 6813 km
RCS: Unknown
Launch date: November 12, 2017
Source: United States (US)
Launch site: WALLOPS ISLAND (WLPIS)
aabbcc
Your satellite tracking list
Your tracking list is empty




NASA's NSSDC Master Catalog

Two Line Element Set (TLE):
1 43044U 17071H   19167.16461817  .00004685  00000-0  11087-3 0  9992
2 43044  51.6396  60.0900 0005126 139.1817 220.9554 15.43793330 85734
Source of the keplerian elements: AFSPC